Weather History for Belgrade Nikola Tesla, Serbia

Change the Weather History Date:

Thursday, November 1, 2012

  Actual Average Record
Temperature  
Mean Temperature 52 °F -  
Max Temperature 58 °F 50 °F 77 °F (2008)
Min Temperature 45 °F 36 °F 28 °F (2005)
Degree Days  
Heating Degree Days 14    
Growing Degree Days 2 (Base 50)    
Moisture  
Dew Point 47 °F    
Average Humidity 81    
Maximum Humidity 100    
Minimum Humidity 62    
Precipitation  
Precipitation 0.04 in - - ()
Sea Level Pressure  
Sea Level Pressure 29.56 in    
Wind  
Wind Speed 20 mph ()    
Max Wind Speed 34 mph    
Max Gust Speed 45 mph    
Visibility 7.1 miles    
Events Rain    
Averages and records for this station are not official NWS values.
T = Trace of Precipitation, MM = Missing Value Source: Averaged Metar Reports

Daily Weather History Graph

Daily Weather History Graph

Search for Another Location

Airport:

Trip Planner

Search our weather history database for the weather conditions in past years. The results will help you decide how hot, cold, wet, or windy it might be!

Date:

Astronomy

Nov. 01, 2012 Rise Set
Actual Time 6:17 AM CET 4:26 PM CET
Civil Twilight 5:46 AM CET 4:57 PM CET
Nautical Twilight 5:12 AM CET 5:32 PM CET
Astronomical Twilight 4:38 AM CET 6:06 PM CET
Moon 6:04 PM CET (11/1) 8:39 AM CET (11/1)
Length of Visible Light 11h 10m
Length of Day
10h 09m
Waning Gibbous, 94% of the Moon is Illuminated
Nov 1
Waning Gibbous
Nov 7
Last Quarter
Nov 13
New
Nov 20
First Quarter
Nov 28
Full

Hourly Weather History & Observations

Time (CET) Temp. Dew Point Humidity Pressure Visibility Wind Dir Wind Speed Gust Speed Precip Events Conditions
12:00 AM 50.0 °F 37.4 °F 62% 29.77 in - ESE 18.4 mph - N/A   Clear
12:30 AM 50.0 °F 37.4 °F 62% 29.74 in - ESE 18.4 mph - N/A   Clear
1:00 AM 50.0 °F 37.4 °F 62% 29.74 in - SE 23.0 mph - N/A   Clear
1:30 AM 50.0 °F 37.4 °F 62% 29.71 in - ESE 25.3 mph - N/A   Clear
2:00 AM 50.0 °F 37.4 °F 62% 29.71 in - ESE 23.0 mph - N/A   Clear
2:30 AM 50.0 °F 39.2 °F 66% 29.68 in - ESE 25.3 mph - N/A   Clear
3:00 AM 50.0 °F 39.2 °F 66% 29.68 in - ESE 21.9 mph - N/A   Clear
3:30 AM 50.0 °F 39.2 °F 66% 29.65 in - SE 23.0 mph - N/A   Clear
4:00 AM 49 °F 40 °F 64% 29.66 in 9 mi ESE 22.4 mph - - Rain Light Rain
4:00 AM 50.0 °F 41.0 °F 71% 29.65 in 6.2 mi ESE 23.0 mph - N/A Rain Light Rain
4:30 AM 48.2 °F 42.8 °F 82% 29.62 in 6.2 mi ESE 26.5 mph - N/A Rain Light Rain
5:00 AM 48.2 °F 44.6 °F 87% 29.59 in 6.2 mi ESE 28.8 mph - N/A Rain Light Rain
5:30 AM 48.2 °F 44.6 °F 87% 29.59 in 6.2 mi ESE 27.6 mph - N/A Rain Light Rain
6:00 AM 48.2 °F 46.4 °F 93% 29.56 in 6.2 mi ESE 32.2 mph - N/A Rain Light Rain
6:30 AM 48.2 °F 46.4 °F 93% 29.53 in 6.2 mi ESE 33.4 mph 44.9 mph N/A Rain Light Rain
7:00 AM 49 °F 46 °F 87% 29.56 in 6 mi ESE 33.6 mph - - Rain Light Rain
7:00 AM 50.0 °F 46.4 °F 87% 29.56 in 6.2 mi ESE 29.9 mph - N/A   Scattered Clouds
7:30 AM 50.0 °F 46.4 °F 87% 29.56 in 6.2 mi ESE 26.5 mph - N/A Rain Light Rain
8:00 AM 50.0 °F 46.4 °F 87% 29.53 in 6.2 mi ESE 28.8 mph - N/A Rain Light Rain
8:30 AM 50.0 °F 46.4 °F 87% 29.53 in 6.2 mi ESE 26.5 mph - N/A Rain Light Rain
9:00 AM 50.0 °F 46.4 °F 87% 29.53 in 6.2 mi SE 24.2 mph - N/A Rain Light Rain
9:30 AM 51.8 °F 48.2 °F 88% 29.50 in 6.2 mi ESE 27.6 mph - N/A Rain Light Rain
10:00 AM 53 °F 49 °F 80% 29.52 in 6 mi SE 29.1 mph - - Rain Light Rain
10:00 AM 51.8 °F 48.2 °F 88% 29.50 in 6.2 mi SE 28.8 mph - N/A   Scattered Clouds
10:30 AM 51.8 °F 48.2 °F 88% 29.50 in 6.2 mi SE 31.1 mph 43.7 mph N/A Rain Light Rain
11:00 AM 51.8 °F 50.0 °F 94% 29.50 in 6.2 mi SE 26.5 mph - N/A   Scattered Clouds
11:30 AM 53.6 °F 50.0 °F 88% 29.47 in 6.2 mi SE 27.6 mph - N/A   Scattered Clouds
12:00 PM 53.6 °F 50.0 °F 88% 29.47 in - SE 29.9 mph - N/A   Clear
12:30 PM 53.6 °F 50.0 °F 88% 29.47 in - SE 31.1 mph - N/A   Clear
1:00 PM 55 °F 50 °F 78% 29.48 in 9 mi SE 31.3 mph - -   Partly Cloudy
1:00 PM 55.4 °F 50.0 °F 82% 29.47 in - SE 31.1 mph - N/A   Clear
1:30 PM 57.2 °F 50.0 °F 77% 29.47 in - SE 29.9 mph - N/A   Clear
2:00 PM 57.2 °F 50.0 °F 77% 29.47 in - SE 25.3 mph - N/A   Clear
2:30 PM 59.0 °F 50.0 °F 72% 29.47 in - SE 25.3 mph - N/A   Clear
3:00 PM 59.0 °F 50.0 °F 72% 29.47 in - SE 26.5 mph - N/A   Clear
3:30 PM 57.2 °F 50.0 °F 77% 29.47 in - SE 19.6 mph - N/A   Clear
4:00 PM 58 °F 50 °F 68% 29.49 in 12 mi SE 17.9 mph - -   Partly Cloudy
4:00 PM 57.2 °F 50.0 °F 77% 29.47 in - SE 19.6 mph - N/A   Clear
4:30 PM 57.2 °F 50.0 °F 77% 29.47 in - SE 19.6 mph - N/A   Clear
5:00 PM 57.2 °F 50.0 °F 77% 29.50 in - SE 16.1 mph - N/A   Clear
5:30 PM 57.2 °F 50.0 °F 77% 29.50 in - SE 15.0 mph - N/A   Clear
6:00 PM 57.2 °F 50.0 °F 77% 29.50 in - SSE 16.1 mph - N/A   Clear
6:30 PM 57.2 °F 50.0 °F 77% 29.53 in - SSE 11.5 mph - N/A   Clear
7:00 PM 56 °F 51 °F 78% 29.54 in 12 mi SSE 11.2 mph - -   Mostly Cloudy
7:00 PM 55.4 °F 51.8 °F 88% 29.53 in - SSE 10.4 mph - N/A   Clear
7:30 PM 55.4 °F 51.8 °F 88% 29.56 in - Variable 1.2 mph - N/A   Clear
8:00 PM 53.6 °F 51.8 °F 94% 29.56 in - East 3.5 mph - N/A   Clear
8:30 PM 55.4 °F 51.8 °F 88% 29.56 in - ESE 5.8 mph - N/A   Clear
9:00 PM 55.4 °F 51.8 °F 88% 29.59 in - SE 8.1 mph - N/A   Clear
9:30 PM 55.4 °F 51.8 °F 88% 29.59 in - SE 5.8 mph - N/A   Clear
10:00 PM 56 °F 52 °F 80% 29.62 in 9 mi SE 2.2 mph - -   Scattered Clouds
10:00 PM 55.4 °F 51.8 °F 88% 29.62 in - Variable 2.3 mph - N/A   Clear
10:30 PM 51.8 °F 50.0 °F 94% 29.62 in - Variable 1.2 mph - N/A   Clear
11:00 PM 51.8 °F 51.8 °F 100% 29.62 in - Variable 1.2 mph - N/A   Clear
11:30 PM 50.0 °F 50.0 °F 100% 29.65 in - SSW 3.5 mph - N/A   Clear